Flag for Panama Weather past 2 weeks in Colón, Panama

Now
77 °F

Passing clouds.


Feels Like: 78 °F
Forecast: 79 / 85 °F
Wind: 8 mph from Northwest

Location: Marcos A. Gelabert

Current Time: Dec 23, 2014 at 12:30:58 AM

Latest Report: Dec 22, 2014 at 10:00 PM


Visibility: N/A

Pressure: 29.80 "Hg

Humidity: 94%

Dew point: 75 °F

Location of ColónLocation

Historic Weather in Colón — Graph

°F

Colón temperature yesterday

Maximum temperature yesterday: 86 °F (at 12:00 PM)
Minimum temperature yesterday: 75 °F (at 6:00 AM)
Average temperature yesterday: 82 °F

Past Weeks' High & Low Weather Summary

 TemperatureHumidityPressure
High90 °F (Dec 12, 1:00 PM)100% (Dec 8, 7:00 AM)29.98 "Hg (Dec 8, 7:00 AM)
Low73 °F (Dec 12, 6:00 AM)55% (Dec 9, 12:00 PM)29.71 "Hg (Dec 22, 4:00 PM)
Average81 °F81%29.86 "Hg
* Reported Dec 7 10:00 PM — Dec 22 10:00 PM, Colón, Weather by CustomWeather, © 2014

Note: Actual official high and low records may vary slightly from our data, if they occured in-between our weather recording intervals... More about our weather records

Advertising

Colón weather history for previous 24 hours

 ConditionsComfort  
Time TempWeatherWind HumidityBarometerVisibility
10:00 PM
Dec 22
77 °FPassing clouds.8 mph94%29.80 "HgN/A
9:00 PM79 °FPassing clouds.8 mph89%29.80 "HgN/A
8:00 PM81 °FPassing clouds.8 mph74%29.77 "HgN/A
7:00 PM81 °FPassing clouds.12 mph84%29.77 "HgN/A
6:00 PM82 °FPassing clouds.9 mph74%29.74 "Hg6 mi
5:00 PM84 °FPassing clouds.12 mph70%29.74 "HgN/A
4:00 PM86 °FPassing clouds.12 mph70%29.71 "HgN/A
3:00 PM86 °FScattered clouds.12 mph75%29.74 "HgN/A
2:00 PM86 °FPassing clouds.12 mph70%29.77 "HgN/A
1:00 PM86 °FScattered clouds.7 mph70%29.80 "HgN/A
12:00 PM86 °FScattered clouds.7 mph70%29.83 "Hg6 mi
11:00 AM84 °FPartly sunny.8 mph74%29.86 "Hg6 mi
10:00 AM82 °FClear.7 mph79%29.86 "Hg6 mi
9:00 AM79 °FScattered clouds.6 mph89%29.86 "Hg6 mi
8:00 AM77 °FPassing clouds.5 mph94%29.86 "Hg6 mi
7:00 AM75 °FPassing clouds.3 mph100%29.83 "Hg6 mi
6:00 AM75 °FPassing clouds.No wind100%29.83 "Hg6 mi
Weather by CustomWeather, © 2014

See weather overviewHow to use our weather pages